QPF
0.04 0.04 0.03 0.02 0.01 0.00 0.00 0.00 0.00 0.00 0.00 0.00 0.00 0.00 0.00 0.00 0.00 0.00 0.00 0.00 0.00 0.00 0.00 0.00 0.00 0.00 0.00 0.00 0.00 0.00 0.00 0.01 0.01 0.00 0.00 0.00 0.00 0.00 0.00 0.00 0.00 0.00 0.00
0.03 0.03 0.02 0.01 0.01 0.00 0.00 0.00 0.00 0.00 0.00 0.00 0.00 0.00 0.00 0.00 0.00 0.00 0.00 0.00 0.00 0.00 0.00 0.00 0.00 0.00 0.00 0.00 0.00 0.00 0.00 0.00 0.01 0.01 0.00 0.00 0.00 0.00 0.00 0.00 0.00 0.00 0.01
0.02 0.01 0.01 0.01 0.01 0.00 0.00 0.00 0.00 0.00 0.00 0.00 0.00 0.00 0.00 0.00 0.00 0.00 0.00 0.00 0.00 0.00 0.00 0.00 0.00 0.00 0.00 0.00 0.00 0.00 0.00 0.00 0.00 0.01 0.00 0.00 0.00 0.00 0.00 0.00 0.00 0.02 0.04
0.01 0.01 0.00 0.00 0.00 0.00 0.00 0.00 0.01 0.01 0.01 0.01 0.00 0.00 0.00 0.00 0.00 0.00 0.00 0.00 0.00 0.00 0.00 0.00 0.00 0.00 0.00 0.00 0.00 0.00 0.00 0.00 0.00 0.01 0.01 0.00 0.00 0.00 0.00 0.01 0.01 0.03 0.04
0.00 0.00 0.00 0.01 0.01 0.01 0.02 0.02 0.03 0.02 0.01 0.00 0.00 0.00 0.00 0.00 0.00 0.00 0.00 0.00 0.00 0.00 0.00 0.00 0.00 0.01 0.01 0.01 0.01 0.01 0.01 0.02 0.02 0.02 0.02 0.01 0.01 0.00 0.00 0.01 0.01 0.01 0.01
0.01 0.02 0.03 0.04 0.05 0.05 0.05 0.03 0.02 0.01 0.00 0.00 0.00 0.00 0.00 0.00 0.00 0.00 0.00 0.00 0.00 0.00 0.00 0.00 0.00 0.00 0.00 0.01 0.01 0.03 0.04 0.04 0.04 0.03 0.02 0.02 0.01 0.00 0.00 0.00 0.01 0.01 0.01
0.06 0.08 0.09 0.09 0.08 0.06 0.03 0.01 0.01 0.00 0.00 0.00 0.00 0.00 0.00 0.00 0.00 0.00 0.00 0.00 0.00 0.00 0.00 0.00 0.00 0.00 0.00 0.00 0.01 0.02 0.02 0.02 0.03 0.03 0.02 0.01 0.01 0.01 0.01 0.02 0.02 0.02 0.01
0.12 0.12 0.11 0.08 0.05 0.02 0.01 0.00 0.00 0.00 0.00 0.00 0.00 0.00 0.00 0.00 0.00 0.00 0.00 0.00 0.00 0.00 0.00 0.00 0.00 0.00 0.00 0.01 0.01 0.00 0.00 0.00 0.01 0.01 0.01 0.01 0.01 0.02 0.04 0.05 0.05 0.03 0.02
0.10 0.07 0.04 0.02 0.01 0.00 0.00 0.00 0.00 0.00 0.00 0.00 0.00 0.00 0.00 0.00 0.00 0.00 0.00 0.00 0.00 0.00 0.00 0.00 0.00 0.00 0.01 0.02 0.01 0.01 0.01 0.00 0.01 0.01 0.02 0.04 0.05 0.06 0.08 0.08 0.08 0.08 0.06
0.03 0.02 0.01 0.00 0.00 0.00 0.00 0.00 0.00 0.00 0.00 0.00 0.00 0.00 0.00 0.00 0.00 0.00 0.00 0.00 0.00 0.00 0.00 0.00 0.00 0.01 0.01 0.01 0.01 0.02 0.03 0.02 0.02 0.02 0.04 0.05 0.06 0.08 0.10 0.10 0.10 0.10 0.07
0.01 0.00 0.00 0.00 0.00 0.00 0.00 0.00 0.00 0.00 0.00 0.00 0.00 0.00 0.00 0.00 0.00 0.00 0.00 0.00 0.00 0.00 0.00 0.00 0.01 0.01 0.01 0.01 0.02 0.03 0.05 0.05 0.05 0.05 0.05 0.05 0.05 0.06 0.06 0.06 0.06 0.06 0.07
0.00 0.00 0.00 0.00 0.00 0.00 0.00 0.00 0.00 0.00 0.00 0.00 0.00 0.00 0.00 0.00 0.00 0.00 0.00 0.00 0.00 0.00 0.00 0.01 0.02 0.02 0.02 0.03 0.04 0.05 0.06 0.07 0.05 0.05 0.04 0.04 0.04 0.04 0.05 0.04 0.04 0.04 0.06
0.00 0.00 0.00 0.00 0.00 0.00 0.00 0.00 0.00 0.00 0.00 0.00 0.00 0.00 0.00 0.00 0.00 0.00 0.00 0.00 0.00 0.00 0.01 0.02 0.02 0.03 0.03 0.04 0.05 0.05 0.05 0.04 0.04 0.04 0.03 0.03 0.03 0.04 0.05 0.04 0.04 0.05 0.06
0.00 0.00 0.00 0.00 0.00 0.00 0.00 0.00 0.00 0.00 0.00 0.00 0.00 0.00 0.00 0.00 0.00 0.00 0.00 0.00 0.00 0.00 0.00 0.01 0.02 0.03 0.04 0.04 0.04 0.04 0.04 0.04 0.04 0.04 0.04 0.04 0.03 0.03 0.03 0.03 0.04 0.05 0.06
0.00 0.00 0.00 0.00 0.00 0.00 0.00 0.00 0.00 0.00 0.00 0.00 0.00 0.00 0.00 0.00 0.00 0.00 0.00 0.00 0.00 0.00 0.00 0.00 0.01 0.01 0.02 0.02 0.02 0.02 0.03 0.03 0.03 0.04 0.05 0.05 0.04 0.04 0.03 0.03 0.03 0.03 0.03
0.00 0.00 0.00 0.00 0.00 0.00 0.00 0.00 0.00 0.00 0.00 0.00 0.00 0.00 0.00 0.00 0.00 0.00 0.00 0.00 0.00 0.00 0.00 0.00 0.01 0.02 0.02 0.03 0.03 0.03 0.04 0.04 0.04 0.04 0.05 0.04 0.03 0.03 0.03 0.02 0.02 0.01 0.02
0.00 0.00 0.00 0.00 0.00 0.00 0.00 0.00 0.00 0.00 0.00 0.00 0.00 0.00 0.00 0.00 0.00 0.00 0.00 0.00 0.00 0.00 0.00 0.01 0.02 0.02 0.03 0.03 0.03 0.04 0.05 0.05 0.05 0.04 0.03 0.02 0.02 0.02 0.02 0.01 0.01 0.01 0.01
0.00 0.00 0.00 0.00 0.00 0.00 0.00 0.00 0.00 0.00 0.00 0.00 0.00 0.00 0.00 0.00 0.00 0.00 0.00 0.00 0.00 0.00 0.01 0.01 0.02 0.03 0.04 0.04 0.04 0.04 0.05 0.06 0.05 0.04 0.04 0.03 0.02 0.01 0.01 0.01 0.01 0.01 0.01
0.00 0.00 0.00 0.00 0.00 0.00 0.00 0.00 0.00 0.00 0.00 0.00 0.00 0.00 0.00 0.00 0.00 0.00 0.00 0.00 0.00 0.01 0.01 0.02 0.03 0.04 0.04 0.04 0.04 0.05 0.05 0.05 0.06 0.05 0.04 0.04 0.03 0.02 0.01 0.01 0.01 0.02 0.02
0.00 0.00 0.00 0.00 0.00 0.00 0.00 0.00 0.00 0.00 0.00 0.00 0.00 0.00 0.00 0.00 0.00 0.00 0.00 0.00 0.01 0.02 0.02 0.03 0.04 0.04 0.04 0.03 0.03 0.04 0.05 0.05 0.05 0.04 0.03 0.03 0.02 0.02 0.01 0.01 0.01 0.01 0.01
0.00 0.00 0.00 0.00 0.00 0.00 0.00 0.00 0.00 0.00 0.00 0.00 0.00 0.00 0.00 0.00 0.01 0.01 0.01 0.01 0.01 0.02 0.03 0.04 0.04 0.04 0.03 0.03 0.03 0.03 0.04 0.03 0.03 0.03 0.02 0.01 0.01 0.01 0.01 0.00 0.00 0.00 0.00
0.00 0.00 0.00 0.00 0.00 0.00 0.00 0.00 0.00 0.00 0.00 0.00 0.00 0.00 0.00 0.01 0.01 0.02 0.02 0.02 0.01 0.02 0.03 0.04 0.04 0.03 0.03 0.03 0.03 0.03 0.03 0.02 0.01 0.01 0.01 0.01 0.00 0.00 0.00 0.00 0.00 0.00 0.00
0.00 0.00 0.00 0.00 0.00 0.00 0.00 0.00 0.00 0.00 0.00 0.00 0.00 0.00 0.00 0.01 0.01 0.02 0.03 0.02 0.02 0.01 0.01 0.02 0.02 0.02 0.02 0.02 0.02 0.02 0.01 0.01 0.00 0.00 0.01 0.00 0.00 0.00 0.00 0.00 0.00 0.00 0.00
0.00 0.00 0.00 0.00 0.00 0.00 0.00 0.00 0.00 0.00 0.00 0.00 0.00 0.00 0.00 0.00 0.01 0.02 0.03 0.03 0.02 0.01 0.01 0.01 0.01 0.01 0.01 0.01 0.00 0.00 0.00 0.00 0.00 0.00 0.00 0.00 0.00 0.00 0.00 0.00 0.00 0.00 0.00
0.00 0.00 0.00 0.00 0.00 0.00 0.00 0.00 0.00 0.00 0.00 0.00 0.00 0.00 0.00 0.00 0.00 0.01 0.01 0.02 0.01 0.01 0.00 0.00 0.00 0.01 0.01 0.00 0.00 0.00 0.00 0.00 0.00 0.00 0.00 0.00 0.00 0.00 0.00 0.00 0.00 0.00 0.00
0.00 0.00 0.00 0.00 0.00 0.00 0.00 0.00 0.00 0.00 0.00 0.00 0.00 0.00 0.00 0.00 0.00 0.00 0.00 0.01 0.01 0.00 0.00 0.00 0.00 0.00 0.00 0.00 0.00 0.00 0.00 0.00 0.00 0.00 0.00 0.00 0.00 0.00 0.00 0.00 0.00 0.00 0.00
MSLP
1015.84 1016.28 1016.76 1017.24 1017.69 1018.11 1018.49 1018.84 1019.16 1019.48 1019.79 1020.09 1020.38 1020.63 1020.83 1020.97 1021.05 1021.06 1021.03 1020.98 1020.92 1020.85 1020.79 1020.73 1020.65 1020.53 1020.35 1020.11 1019.80 1019.43 1019.01 1018.57 1018.12 1017.67 1017.23 1016.80 1016.36 1015.92 1015.46 1014.99 1014.52 1014.05 1013.61
1016.49 1016.91 1017.34 1017.77 1018.17 1018.54 1018.87 1019.17 1019.47 1019.75 1020.04 1020.33 1020.60 1020.83 1021.02 1021.15 1021.21 1021.21 1021.16 1021.08 1020.98 1020.86 1020.74 1020.61 1020.45 1020.26 1020.02 1019.72 1019.38 1019.00 1018.59 1018.16 1017.73 1017.31 1016.89 1016.47 1016.04 1015.59 1015.12 1014.64 1014.14 1013.66 1013.20
1017.17 1017.58 1017.99 1018.38 1018.73 1019.05 1019.34 1019.61 1019.87 1020.13 1020.39 1020.65 1020.90 1021.11 1021.28 1021.38 1021.42 1021.40 1021.33 1021.22 1021.07 1020.91 1020.72 1020.51 1020.27 1020.00 1019.68 1019.33 1018.94 1018.53 1018.11 1017.70 1017.29 1016.88 1016.49 1016.08 1015.66 1015.22 1014.74 1014.25 1013.74 1013.24 1012.77
1017.87 1018.27 1018.66 1019.02 1019.33 1019.62 1019.87 1020.10 1020.33 1020.57 1020.81 1021.04 1021.26 1021.45 1021.58 1021.66 1021.68 1021.63 1021.52 1021.37 1021.18 1020.96 1020.71 1020.42 1020.10 1019.74 1019.34 1018.91 1018.47 1018.02 1017.57 1017.14 1016.73 1016.34 1015.96 1015.57 1015.16 1014.72 1014.24 1013.75 1013.23 1012.73 1012.25
1018.57 1018.96 1019.32 1019.65 1019.93 1020.18 1020.41 1020.62 1020.83 1021.04 1021.26 1021.47 1021.66 1021.81 1021.91 1021.96 1021.94 1021.85 1021.71 1021.52 1021.28 1021.00 1020.68 1020.31 1019.91 1019.46 1018.97 1018.46 1017.94 1017.43 1016.94 1016.48 1016.06 1015.66 1015.28 1014.89 1014.49 1014.05 1013.59 1013.10 1012.59 1012.09 1011.62
1019.24 1019.61 1019.94 1020.24 1020.50 1020.72 1020.92 1021.12 1021.31 1021.51 1021.71 1021.89 1022.05 1022.17 1022.23 1022.23 1022.17 1022.04 1021.86 1021.62 1021.33 1020.99 1020.60 1020.16 1019.67 1019.14 1018.56 1017.97 1017.37 1016.79 1016.24 1015.74 1015.28 1014.86 1014.47 1014.08 1013.68 1013.26 1012.80 1012.33 1011.84 1011.36 1010.91
1019.87 1020.21 1020.51 1020.77 1021.00 1021.20 1021.39 1021.57 1021.76 1021.94 1022.12 1022.28 1022.41 1022.48 1022.50 1022.45 1022.34 1022.16 1021.92 1021.64 1021.30 1020.91 1020.46 1019.95 1019.39 1018.78 1018.12 1017.45 1016.77 1016.12 1015.52 1014.96 1014.46 1014.02 1013.61 1013.21 1012.82 1012.40 1011.96 1011.51 1011.05 1010.60 1010.18
1020.45 1020.75 1021.01 1021.24 1021.44 1021.62 1021.79 1021.97 1022.16 1022.33 1022.49 1022.62 1022.71 1022.74 1022.70 1022.59 1022.42 1022.19 1021.90 1021.56 1021.18 1020.74 1020.24 1019.69 1019.07 1018.40 1017.68 1016.94 1016.20 1015.49 1014.83 1014.23 1013.70 1013.23 1012.80 1012.40 1012.01 1011.61 1011.19 1010.76 1010.33 1009.92 1009.55
1020.97 1021.23 1021.45 1021.65 1021.83 1022.00 1022.16 1022.34 1022.51 1022.68 1022.82 1022.91 1022.96 1022.93 1022.83 1022.66 1022.43 1022.13 1021.79 1021.41 1020.98 1020.51 1019.97 1019.38 1018.73 1018.02 1017.26 1016.48 1015.71 1014.96 1014.27 1013.64 1013.09 1012.60 1012.17 1011.77 1011.39 1011.00 1010.60 1010.20 1009.80 1009.43 1009.10
1021.42 1021.64 1021.83 1022.01 1022.18 1022.34 1022.51 1022.68 1022.85 1023.00 1023.11 1023.17 1023.16 1023.08 1022.91 1022.68 1022.38 1022.03 1021.64 1021.21 1020.75 1020.24 1019.69 1019.08 1018.41 1017.68 1016.92 1016.12 1015.34 1014.58 1013.88 1013.24 1012.69 1012.20 1011.77 1011.38 1011.01 1010.64 1010.27 1009.89 1009.52 1009.17 1008.87
1021.78 1021.98 1022.16 1022.33 1022.49 1022.66 1022.84 1023.01 1023.17 1023.30 1023.39 1023.41 1023.35 1023.20 1022.98 1022.68 1022.32 1021.92 1021.48 1021.02 1020.53 1020.00 1019.43 1018.82 1018.15 1017.43 1016.67 1015.89 1015.11 1014.37 1013.68 1013.06 1012.52 1012.04 1011.64 1011.26 1010.91 1010.56 1010.20 1009.85 1009.49 1009.16 1008.87
1022.06 1022.25 1022.42 1022.60 1022.77 1022.96 1023.14 1023.32 1023.48 1023.59 1023.66 1023.64 1023.53 1023.34 1023.06 1022.70 1022.30 1021.85 1021.37 1020.87 1020.36 1019.82 1019.25 1018.63 1017.97 1017.27 1016.53 1015.77 1015.02 1014.31 1013.65 1013.06 1012.55 1012.10 1011.72 1011.37 1011.03 1010.70 1010.36 1010.02 1009.67 1009.34 1009.05
1022.24 1022.43 1022.61 1022.80 1023.00 1023.20 1023.41 1023.59 1023.76 1023.86 1023.90 1023.86 1023.72 1023.48 1023.16 1022.76 1022.32 1021.83 1021.33 1020.81 1020.28 1019.73 1019.15 1018.54 1017.89 1017.21 1016.49 1015.77 1015.05 1014.38 1013.75 1013.20 1012.72 1012.30 1011.95 1011.62 1011.31 1010.99 1010.67 1010.33 1009.98 1009.65 1009.35
1022.32 1022.52 1022.72 1022.93 1023.16 1023.38 1023.61 1023.81 1023.97 1024.08 1024.11 1024.04 1023.88 1023.62 1023.27 1022.86 1022.39 1021.88 1021.36 1020.83 1020.28 1019.73 1019.15 1018.55 1017.91 1017.24 1016.55 1015.85 1015.17 1014.53 1013.94 1013.42 1012.97 1012.58 1012.24 1011.94 1011.64 1011.35 1011.03 1010.70 1010.36 1010.03 1009.72
1022.32 1022.52 1022.74 1022.98 1023.22 1023.47 1023.72 1023.94 1024.11 1024.22 1024.24 1024.17 1024.00 1023.74 1023.38 1022.96 1022.49 1021.98 1021.45 1020.92 1020.37 1019.81 1019.24 1018.63 1018.00 1017.35 1016.67 1016.00 1015.35 1014.73 1014.17 1013.67 1013.24 1012.87 1012.55 1012.27 1011.99 1011.70 1011.40 1011.09 1010.77 1010.44 1010.14
1022.26 1022.46 1022.69 1022.94 1023.20 1023.47 1023.73 1023.96 1024.14 1024.25 1024.28 1024.22 1024.05 1023.79 1023.45 1023.04 1022.58 1022.09 1021.58 1021.05 1020.51 1019.96 1019.38 1018.79 1018.16 1017.52 1016.86 1016.20 1015.57 1014.97 1014.42 1013.94 1013.52 1013.16 1012.85 1012.57 1012.30 1012.04 1011.76 1011.47 1011.18 1010.89 1010.61
1022.17 1022.37 1022.60 1022.85 1023.12 1023.40 1023.66 1023.89 1024.07 1024.19 1024.22 1024.17 1024.02 1023.77 1023.46 1023.07 1022.64 1022.17 1021.69 1021.18 1020.66 1020.12 1019.56 1018.98 1018.37 1017.75 1017.10 1016.46 1015.84 1015.25 1014.71 1014.23 1013.81 1013.45 1013.14 1012.87 1012.61 1012.36 1012.12 1011.87 1011.62 1011.38 1011.15
1022.10 1022.28 1022.50 1022.75 1023.01 1023.27 1023.53 1023.75 1023.93 1024.04 1024.08 1024.03 1023.90 1023.68 1023.39 1023.04 1022.64 1022.22 1021.76 1021.29 1020.80 1020.29 1019.76 1019.21 1018.62 1018.02 1017.40 1016.78 1016.17 1015.59 1015.05 1014.57 1014.14 1013.77 1013.45 1013.17 1012.92 1012.70 1012.49 1012.29 1012.10 1011.92 1011.77
1022.09 1022.25 1022.44 1022.67 1022.91 1023.15 1023.39 1023.59 1023.75 1023.86 1023.89 1023.85 1023.72 1023.53 1023.27 1022.96 1022.60 1022.22 1021.81 1021.38 1020.93 1020.46 1019.97 1019.45 1018.90 1018.33 1017.74 1017.15 1016.56 1015.99 1015.45 1014.96 1014.52 1014.13 1013.79 1013.51 1013.26 1013.05 1012.88 1012.73 1012.61 1012.52 1012.45
1022.14 1022.28 1022.44 1022.64 1022.85 1023.07 1023.28 1023.45 1023.59 1023.68 1023.70 1023.66 1023.55 1023.37 1023.14 1022.86 1022.54 1022.20 1021.83 1021.45 1021.05 1020.62 1020.18 1019.70 1019.20 1018.67 1018.12 1017.56 1016.99 1016.43 1015.89 1015.39 1014.93 1014.52 1014.16 1013.86 1013.61 1013.41 1013.27 1013.17 1013.11 1013.10 1013.12
1022.26 1022.37 1022.52 1022.68 1022.87 1023.05 1023.23 1023.38 1023.49 1023.56 1023.57 1023.53 1023.42 1023.26 1023.04 1022.79 1022.51 1022.20 1021.88 1021.53 1021.17 1020.79 1020.39 1019.97 1019.51 1019.03 1018.52 1017.98 1017.43 1016.88 1016.34 1015.82 1015.34 1014.90 1014.51 1014.19 1013.93 1013.74 1013.61 1013.55 1013.56 1013.61 1013.72
1022.44 1022.53 1022.65 1022.79 1022.95 1023.11 1023.26 1023.39 1023.48 1023.54 1023.54 1023.49 1023.39 1023.23 1023.04 1022.81 1022.55 1022.27 1021.97 1021.66 1021.33 1020.99 1020.62 1020.24 1019.82 1019.37 1018.89 1018.38 1017.85 1017.30 1016.75 1016.21 1015.70 1015.23 1014.81 1014.46 1014.18 1013.98 1013.87 1013.84 1013.88 1013.99 1014.16
1022.65 1022.73 1022.83 1022.96 1023.10 1023.24 1023.38 1023.50 1023.58 1023.63 1023.63 1023.58 1023.49 1023.35 1023.16 1022.95 1022.70 1022.43 1022.15 1021.85 1021.54 1021.22 1020.87 1020.51 1020.11 1019.68 1019.22 1018.72 1018.19 1017.64 1017.08 1016.52 1015.97 1015.47 1015.02 1014.64 1014.34 1014.13 1014.02 1014.00 1014.07 1014.22 1014.42
1022.87 1022.94 1023.03 1023.16 1023.29 1023.43 1023.57 1023.69 1023.78 1023.84 1023.85 1023.81 1023.73 1023.60 1023.42 1023.22 1022.98 1022.71 1022.43 1022.13 1021.82 1021.49 1021.15 1020.78 1020.38 1019.95 1019.48 1018.98 1018.45 1017.88 1017.31 1016.73 1016.16 1015.63 1015.15 1014.75 1014.43 1014.21 1014.09 1014.08 1014.16 1014.32 1014.55
1023.08 1023.15 1023.25 1023.38 1023.52 1023.67 1023.82 1023.96 1024.06 1024.13 1024.16 1024.15 1024.08 1023.97 1023.81 1023.61 1023.37 1023.11 1022.81 1022.50 1022.17 1021.82 1021.45 1021.06 1020.64 1020.20 1019.71 1019.20 1018.65 1018.07 1017.48 1016.88 1016.30 1015.76 1015.26 1014.84 1014.52 1014.29 1014.17 1014.15 1014.23 1014.40 1014.64
1023.30 1023.37 1023.48 1023.62 1023.78 1023.95 1024.12 1024.28 1024.41 1024.50 1024.56 1024.57 1024.53 1024.44 1024.29 1024.10 1023.87 1023.59 1023.29 1022.95 1022.59 1022.21 1021.81 1021.39 1020.93 1020.45 1019.95 1019.40 1018.84 1018.25 1017.65 1017.05 1016.47 1015.92 1015.43 1015.02 1014.70 1014.47 1014.36 1014.35 1014.43 1014.59 1014.82
Thickness
5640 5634 5628 5622 5615 5609 5602 5593 5586 5578 5572 5566 5559 5553 5546 5540 5533 5526 5519 5514 5508 5502 5496 5492 5486 5481 5475 5468 5461 5454 5447 5440 5442 5446 5437 5433 5429 5427 5426 5424 5424 5425 5427
5626 5620 5614 5608 5602 5595 5587 5580 5573 5566 5560 5553 5547 5539 5531 5524 5517 5510 5503 5497 5492 5487 5482 5476 5471 5467 5459 5453 5446 5439 5432 5425 5421 5425 5424 5418 5415 5412 5411 5411 5413 5415 5417
5614 5607 5601 5594 5588 5580 5572 5565 5558 5551 5544 5538 5531 5522 5514 5507 5500 5494 5487 5482 5477 5472 5467 5462 5457 5451 5445 5439 5432 5425 5419 5415 5408 5407 5411 5408 5405 5403 5402 5403 5404 5406 5409
5601 5593 5586 5579 5572 5564 5557 5549 5541 5534 5526 5520 5513 5506 5498 5492 5486 5479 5473 5467 5463 5458 5454 5449 5444 5437 5431 5426 5420 5414 5408 5404 5401 5400 5402 5402 5399 5397 5395 5395 5398 5400 5403
5586 5577 5569 5561 5554 5547 5539 5531 5524 5516 5510 5504 5498 5491 5483 5477 5471 5463 5458 5453 5448 5444 5440 5435 5430 5425 5420 5413 5409 5404 5400 5397 5397 5396 5398 5398 5396 5393 5392 5393 5394 5396 5400
5568 5559 5551 5543 5536 5528 5521 5513 5506 5499 5493 5488 5481 5475 5469 5463 5456 5450 5444 5439 5435 5430 5426 5422 5416 5412 5407 5403 5399 5396 5393 5392 5392 5392 5394 5395 5396 5395 5394 5394 5394 5396 5400
5546 5539 5531 5525 5517 5510 5504 5496 5490 5484 5477 5471 5465 5460 5455 5449 5443 5437 5432 5426 5421 5417 5412 5408 5405 5402 5398 5396 5394 5391 5390 5389 5390 5391 5394 5397 5397 5397 5396 5397 5399 5401 5404
5526 5520 5514 5508 5501 5494 5487 5481 5474 5468 5462 5456 5451 5447 5442 5437 5431 5425 5419 5414 5409 5405 5401 5398 5396 5395 5394 5391 5389 5389 5390 5391 5394 5396 5398 5400 5400 5401 5401 5402 5404 5406 5409
5510 5506 5501 5494 5486 5479 5472 5466 5460 5454 5449 5444 5439 5434 5429 5423 5418 5413 5407 5402 5399 5397 5395 5394 5392 5392 5390 5387 5388 5390 5393 5397 5401 5403 5404 5405 5406 5406 5406 5407 5409 5411 5414
5497 5492 5487 5480 5472 5465 5458 5452 5447 5441 5435 5430 5425 5421 5416 5411 5406 5402 5398 5395 5393 5392 5391 5391 5390 5389 5389 5389 5391 5394 5398 5402 5405 5408 5409 5410 5410 5410 5410 5409 5409 5411 5414
5484 5479 5472 5466 5459 5452 5445 5439 5433 5427 5421 5416 5411 5407 5403 5399 5397 5395 5393 5390 5388 5388 5389 5390 5390 5390 5391 5394 5396 5399 5402 5405 5408 5410 5410 5411 5411 5410 5409 5407 5407 5407 5409
5472 5465 5459 5453 5447 5439 5432 5426 5420 5413 5407 5401 5397 5394 5392 5391 5390 5389 5388 5386 5385 5385 5387 5388 5390 5392 5395 5398 5401 5403 5406 5408 5409 5410 5410 5409 5409 5408 5407 5405 5404 5404 5404
5460 5451 5445 5439 5432 5426 5419 5412 5405 5399 5393 5389 5385 5384 5384 5385 5384 5383 5382 5382 5383 5384 5386 5389 5392 5395 5399 5402 5404 5406 5408 5409 5409 5410 5409 5408 5406 5405 5404 5404 5404 5404 5404
5448 5439 5433 5426 5419 5414 5408 5401 5395 5389 5384 5381 5378 5377 5377 5378 5377 5376 5376 5378 5381 5383 5386 5390 5394 5398 5401 5403 5406 5408 5408 5409 5409 5410 5410 5408 5406 5406 5406 5406 5406 5406 5407
5438 5430 5423 5416 5409 5404 5398 5393 5388 5383 5380 5376 5372 5370 5369 5370 5370 5369 5370 5374 5377 5381 5386 5390 5394 5397 5400 5403 5406 5408 5409 5411 5411 5411 5410 5409 5408 5408 5407 5408 5408 5408 5409
5429 5420 5413 5407 5401 5396 5390 5385 5382 5378 5375 5371 5368 5365 5364 5364 5365 5367 5370 5374 5378 5382 5386 5389 5393 5396 5399 5401 5405 5407 5410 5411 5411 5410 5410 5410 5410 5410 5410 5410 5410 5410 5409
5418 5411 5405 5400 5395 5390 5384 5379 5374 5370 5368 5365 5363 5361 5360 5362 5363 5365 5369 5373 5378 5382 5386 5389 5392 5395 5398 5401 5404 5407 5409 5410 5410 5410 5410 5410 5411 5411 5411 5412 5412 5411 5410
5411 5406 5400 5395 5391 5386 5381 5375 5370 5365 5361 5360 5360 5359 5358 5360 5362 5364 5368 5373 5378 5382 5385 5388 5392 5394 5398 5401 5404 5407 5410 5411 5412 5412 5413 5412 5412 5411 5411 5412 5412 5412 5412
5406 5400 5395 5391 5387 5382 5377 5371 5367 5364 5360 5357 5356 5356 5357 5359 5362 5365 5368 5372 5376 5381 5385 5389 5392 5395 5397 5401 5404 5407 5410 5412 5414 5416 5417 5417 5415 5414 5413 5413 5412 5412 5412
5401 5397 5392 5386 5382 5377 5372 5368 5364 5361 5358 5355 5354 5354 5356 5360 5363 5366 5369 5373 5377 5381 5385 5389 5392 5395 5398 5401 5404 5407 5410 5413 5416 5420 5422 5423 5422 5420 5419 5418 5416 5415 5414
5398 5392 5389 5383 5378 5374 5370 5367 5364 5361 5358 5355 5355 5356 5359 5361 5364 5367 5371 5375 5379 5383 5386 5390 5392 5395 5398 5401 5405 5407 5411 5414 5418 5422 5426 5428 5429 5430 5429 5427 5424 5421 5419
5395 5389 5383 5379 5375 5372 5369 5367 5364 5362 5359 5358 5358 5360 5362 5364 5367 5370 5374 5378 5382 5385 5388 5391 5393 5396 5398 5402 5405 5408 5411 5415 5420 5424 5429 5433 5435 5436 5437 5436 5433 5429 5425
5393 5387 5381 5377 5374 5372 5369 5367 5365 5363 5362 5361 5362 5363 5365 5368 5371 5374 5378 5381 5385 5388 5391 5394 5396 5399 5401 5404 5407 5410 5412 5416 5421 5426 5431 5437 5440 5441 5440 5440 5438 5434 5430
5393 5387 5381 5377 5374 5371 5369 5368 5367 5367 5366 5366 5366 5368 5369 5371 5374 5377 5380 5384 5387 5390 5393 5396 5398 5401 5403 5407 5411 5415 5418 5422 5427 5432 5437 5441 5444 5446 5445 5444 5441 5438 5433
5394 5388 5383 5378 5375 5372 5371 5370 5370 5370 5369 5369 5370 5371 5372 5374 5377 5379 5382 5385 5388 5391 5394 5398 5401 5403 5406 5410 5414 5419 5424 5429 5434 5438 5442 5446 5448 5450 5449 5448 5444 5441 5437
5397 5391 5385 5381 5378 5376 5374 5373 5372 5372 5372 5372 5372 5373 5374 5376 5377 5380 5383 5386 5389 5391 5395 5398 5401 5405 5408 5412 5417 5422 5427 5432 5437 5442 5446 5449 5450 5451 5450 5448 5446 5443 5440